TimeCDT,TemperatureF,Dew PointF,Humidity,Sea Level PressureIn,VisibilityMPH,Wind Direction,Wind SpeedMPH,Gust SpeedMPH,PrecipitationIn,Events,Conditions,WindDirDegrees,DateUTC
12:15 AM,64.4,60.8,88,30.04,10.0,Calm,Calm,-,N/A,,Unknown,0,2013-06-14 05:15:00
12:35 AM,64.4,60.8,88,30.04,10.0,Calm,Calm,-,N/A,,Mostly Cloudy,0,2013-06-14 05:35:00
12:55 AM,64.4,60.8,88,30.04,10.0,Calm,Calm,-,N/A,,Mostly Cloudy,0,2013-06-14 05:55:00
1:15 AM,64.4,60.8,88,30.03,10.0,NE,3.5,-,N/A,,Mostly Cloudy,50,2013-06-14 06:15:00
1:35 AM,64.4,60.8,88,30.02,10.0,ENE,6.9,-,N/A,,Mostly Cloudy,60,2013-06-14 06:35:00
1:55 AM,64.4,59.0,83,30.02,10.0,NE,4.6,-,N/A,,Unknown,40,2013-06-14 06:55:00
2:15 AM,62.6,60.8,94,30.03,10.0,North,3.5,-,N/A,,Unknown,10,2013-06-14 07:15:00
2:35 AM,62.6,60.8,94,30.04,10.0,North,4.6,-,N/A,,Unknown,10,2013-06-14 07:35:00
2:55 AM,64.4,60.8,88,30.03,10.0,ENE,6.9,-,N/A,,Unknown,60,2013-06-14 07:55:00
3:15 AM,64.4,60.8,88,30.02,10.0,Calm,Calm,-,N/A,,Unknown,0,2013-06-14 08:15:00
3:35 AM,64.4,60.8,88,30.00,10.0,East,3.5,-,N/A,,Unknown,80,2013-06-14 08:35:00
3:55 AM,66.2,59.0,78,30.00,10.0,ESE,6.9,-,N/A,,Unknown,110,2013-06-14 08:55:00
4:15 AM,64.4,59.0,83,29.98,10.0,ESE,6.9,-,N/A,,Unknown,110,2013-06-14 09:15:00
4:35 AM,64.4,59.0,83,29.97,10.0,ESE,5.8,-,N/A,,Unknown,120,2013-06-14 09:35:00
4:55 AM,64.4,59.0,83,29.98,10.0,SSE,4.6,-,N/A,,Unknown,150,2013-06-14 09:55:00
5:15 AM,64.4,59.0,83,29.99,10.0,South,8.1,-,N/A,,Unknown,170,2013-06-14 10:15:00
5:35 AM,64.4,59.0,83,29.99,10.0,SE,6.9,-,N/A,,Unknown,140,2013-06-14 10:35:00
5:55 AM,64.4,59.0,83,29.98,10.0,ESE,6.9,-,N/A,,Unknown,120,2013-06-14 10:55:00
6:15 AM,66.2,59.0,78,29.98,10.0,SE,6.9,-,N/A,,Partly Cloudy,130,2013-06-14 11:15:00
6:35 AM,66.2,59.0,78,29.99,10.0,SE,8.1,-,N/A,,Scattered Clouds,140,2013-06-14 11:35:00
6:55 AM,66.2,60.8,83,29.98,10.0,SE,11.5,-,N/A,,Scattered Clouds,130,2013-06-14 11:55:00
7:15 AM,66.2,60.8,83,29.98,10.0,ESE,9.2,-,N/A,,Mostly Cloudy,120,2013-06-14 12:15:00
7:35 AM,66.2,60.8,83,29.98,10.0,SE,12.7,-,N/A,,Mostly Cloudy,130,2013-06-14 12:35:00
7:55 AM,68.0,60.8,78,29.98,10.0,SSE,10.4,-,N/A,,Overcast,150,2013-06-14 12:55:00
8:15 AM,68.0,60.8,78,29.97,10.0,SE,16.1,-,N/A,,Overcast,140,2013-06-14 13:15:00
8:35 AM,68.0,62.6,83,29.98,10.0,North,-9999.0,-,N/A,,Overcast,0,2013-06-14 13:35:00
8:55 AM,68.0,62.6,83,29.98,10.0,SSE,10.4,-,N/A,,Overcast,150,2013-06-14 13:55:00
9:15 AM,69.8,64.4,83,29.97,10.0,North,-9999.0,-,N/A,,Mostly Cloudy,0,2013-06-14 14:15:00
9:35 AM,69.8,64.4,83,29.97,10.0,North,-9999.0,-,N/A,,Mostly Cloudy,0,2013-06-14 14:35:00
9:55 AM,69.8,64.4,83,29.96,10.0,SE,17.3,-,N/A,,Scattered Clouds,130,2013-06-14 14:55:00
10:15 AM,69.8,64.4,83,29.93,10.0,North,-9999.0,-,N/A,,Clear,0,2013-06-14 15:15:00
10:35 AM,71.6,64.4,78,29.91,10.0,SE,26.5,-,N/A,,Clear,140,2013-06-14 15:35:00
10:55 AM,71.6,64.4,78,29.88,10.0,SE,24.2,35.7,N/A,,Clear,140,2013-06-14 15:55:00
11:15 AM,73.4,64.4,73,29.89,10.0,SE,27.6,34.5,N/A,,Clear,140,2013-06-14 16:15:00
11:35 AM,73.4,64.4,73,29.92,10.0,SE,24.2,33.4,N/A,,Partly Cloudy,140,2013-06-14 16:35:00
11:55 AM,75.2,66.2,73,29.93,10.0,North,-9999.0,-,N/A,,Mostly Cloudy,0,2013-06-14 16:55:00
12:15 PM,75.2,64.4,69,29.93,10.0,SSE,24.2,-,N/A,,Partly Cloudy,150,2013-06-14 17:15:00
12:35 PM,77.0,66.2,69,29.93,10.0,SSE,20.7,29.9,N/A,,Clear,150,2013-06-14 17:35:00
12:55 PM,77.0,66.2,69,29.92,10.0,SSE,24.2,32.2,N/A,,Partly Cloudy,160,2013-06-14 17:55:00
1:15 PM,77.0,66.2,69,29.92,10.0,SSE,23.0,31.1,N/A,,Scattered Clouds,150,2013-06-14 18:15:00
1:35 PM,77.0,66.2,69,29.91,10.0,SSE,19.6,29.9,N/A,,Partly Cloudy,150,2013-06-14 18:35:00
1:55 PM,77.0,66.2,69,29.89,10.0,SSE,21.9,27.6,N/A,,Clear,150,2013-06-14 18:55:00
2:15 PM,77.0,66.2,69,29.88,10.0,North,-9999.0,-,N/A,,Clear,0,2013-06-14 19:15:00
2:35 PM,78.8,66.2,65,29.88,10.0,SSE,21.9,31.1,N/A,,Clear,160,2013-06-14 19:35:00
2:55 PM,78.8,66.2,65,29.89,10.0,SSE,21.9,28.8,N/A,,Clear,160,2013-06-14 19:55:00
3:15 PM,80.6,68.0,65,29.89,10.0,SSE,23.0,29.9,N/A,,Clear,150,2013-06-14 20:15:00
3:35 PM,80.6,68.0,65,29.88,10.0,SE,19.6,29.9,N/A,,Clear,140,2013-06-14 20:35:00
3:55 PM,80.6,68.0,65,29.86,10.0,North,-9999.0,-,N/A,,Clear,0,2013-06-14 20:55:00
4:15 PM,80.6,68.0,65,29.86,10.0,North,-9999.0,-,N/A,,Clear,0,2013-06-14 21:15:00
4:35 PM,82.4,68.0,62,29.85,10.0,SE,20.7,26.5,N/A,,Clear,130,2013-06-14 21:35:00
4:55 PM,82.4,68.0,62,29.85,10.0,SE,17.3,25.3,N/A,,Clear,130,2013-06-14 21:55:00
5:15 PM,82.4,68.0,62,29.84,10.0,North,-9999.0,-,N/A,,Clear,0,2013-06-14 22:15:00
5:35 PM,84.2,69.8,62,29.84,10.0,North,-9999.0,-,N/A,,Clear,0,2013-06-14 22:35:00
5:55 PM,84.2,68.0,58,29.83,10.0,SSE,23.0,32.2,N/A,,Clear,150,2013-06-14 22:55:00
6:15 PM,84.2,69.8,62,29.82,10.0,SE,19.6,25.3,N/A,,Clear,130,2013-06-14 23:15:00
6:35 PM,82.4,68.0,62,29.83,10.0,SE,21.9,29.9,N/A,,Mostly Cloudy,140,2013-06-14 23:35:00
6:55 PM,82.4,68.0,62,29.82,10.0,SE,19.6,27.6,N/A,,Overcast,140,2013-06-14 23:55:00
7:15 PM,80.6,68.0,65,29.81,10.0,SE,17.3,28.8,N/A,,Mostly Cloudy,130,2013-06-15 00:15:00
7:35 PM,80.6,68.0,65,29.83,10.0,SE,19.6,28.8,N/A,,Scattered Clouds,130,2013-06-15 00:35:00
7:55 PM,78.8,68.0,69,29.84,10.0,ESE,19.6,28.8,N/A,,Overcast,120,2013-06-15 00:55:00
8:15 PM,77.0,68.0,74,29.81,10.0,SE,19.6,27.6,N/A,,Mostly Cloudy,130,2013-06-15 01:15:00
8:35 PM,77.0,68.0,74,29.84,10.0,SE,20.7,-,N/A,,Scattered Clouds,130,2013-06-15 01:35:00
8:55 PM,75.2,68.0,78,29.84,10.0,SE,19.6,-,N/A,,Partly Cloudy,140,2013-06-15 01:55:00
9:15 PM,73.4,66.2,78,29.96,8.0,WNW,23.0,35.7,N/A,Rain,Rain,290,2013-06-15 02:15:00
9:35 PM,66.2,66.2,100,29.99,1.2,WNW,15.0,33.4,N/A,Rain,Heavy Rain,300,2013-06-15 02:35:00
9:55 PM,66.2,66.2,100,29.95,1.8,North,5.8,21.9,0.74,Rain,Heavy Rain,350,2013-06-15 02:55:00
10:15 PM,66.2,66.2,100,29.92,3.0,SSE,5.8,16.1,N/A,Rain,Rain,160,2013-06-15 03:15:00
10:35 PM,66.2,66.2,100,29.88,10.0,East,3.5,-,N/A,Rain,Light Rain,90,2013-06-15 03:35:00
10:55 PM,66.2,66.2,100,29.89,10.0,SSE,5.8,-,0.13,,Overcast,160,2013-06-15 03:55:00
11:15 PM,66.2,66.2,100,29.89,10.0,SSE,13.8,-,N/A,,Mostly Cloudy,150,2013-06-15 04:15:00
11:35 PM,66.2,66.2,100,29.87,10.0,South,11.5,-,N/A,,Partly Cloudy,170,2013-06-15 04:35:00
11:55 PM,68.0,66.2,94,29.87,10.0,South,9.2,16.1,N/A,,Clear,170,2013-06-15 04:55:00